Location: Lafig�re
(44.4503°N, 4.0357°E)
Time: 00:21:06
(UTC+00:00)

Cosmos 1833 Rocket - Visible Passes

Search period start: 24 January 2021 00:00
Search period end: 03 February 2021 00:00
Orbit: 834 x 838 km, 71.0° (Epoch: 23 January)

Date Brightness Start Highest point End Pass type
(mag) Time Alt. Az. Time Alt. Az. Time Alt. Az.
24 Jan 2.8 18:27:14 10° NNW 18:32:41 48° ENE 18:34:40 34° ESE visible
24 Jan 4.5 20:11:42 10° NW 20:16:18 26° WSW 20:16:28 26° WSW visible
25 Jan 2.9 18:10:31 10° NNW 18:15:55 45° ENE 18:20:05 16° SE visible
25 Jan 4.4 19:54:52 10° NW 19:59:36 29° WSW 20:01:56 21° SW visible
26 Jan 3.0 17:53:49 10° NNW 17:59:09 42° ENE 18:04:27 10° SE visible
26 Jan 4.3 19:38:02 10° NW 19:42:54 31° WSW 19:47:46 10° SSW visible
27 Jan 3.1 17:37:07 10° NNW 17:42:22 39° NE 17:47:36 10° SE visible
27 Jan 4.2 19:21:13 10° NW 19:26:12 34° WSW 19:31:10 10° SSW visible
28 Jan 3.2 17:20:25 10° NNW 17:25:36 36° NE 17:30:45 10° ESE visible
28 Jan 4.1 19:04:24 10° NW 19:09:30 37° WSW 19:14:35 10° S visible
29 Jan 4.0 18:47:35 10° NW 18:52:48 40° WSW 18:57:58 10° S visible
30 Jan 3.9 18:30:48 10° NW 18:36:05 43° WSW 18:41:21 10° S visible
31 Jan 3.8 18:14:01 10° NW 18:19:22 47° WSW 18:24:43 10° S visible
01 Feb 3.7 17:57:13 10° NW 18:02:39 51° WSW 18:08:03 10° S visible
02 Feb 3.5 17:40:27 10° NNW 17:45:56 56° WSW 17:51:24 10° S visible
